User: anonymous   Login
Location: Fort Frances
(48.6170°N, 93.4170°W)
Time: 19:15:53
(UTC-05:00)
Language:

CZ-2C R/B - Orbit

View from above orbital plane
View from above orbital plane
View from above satellite
View from above satellite

Ground track
Ground track

The orbit data is extracted from the following two-line orbital elements,

1 36089U 09061B   17175.56703802 -.00000022 +00000-0 +56890-5 0  9992
2 36089 098.0517 177.0379 0082643 023.9255 124.6920 14.49665265402683
Epoch (UTC): 24 June 2017 13:36:32
Eccentricity: 0.0082643
inclination: 98.0517°
perigee height: 668 km
apogee height: 785 km
right ascension of ascending node: 177.0379°
argument of perigee: 23.9255°
revolutions per day: 14.49665265
mean anomaly at epoch: 124.6920°
orbit number at epoch: 40268

The dashed part of the orbit path shows where the satellite is in the earth's shadow,  

DLR